Météo par heure à Kyustendil

Ce jour, 4 Août, Mercredi

Heure Température Précipitation Vent Pression Humidité
00:00 +23°C° 0 mm 1 m/s 698 mmHg 41%
01:00 +22°C° 0 mm 1 m/s 698 mmHg 42%
02:00 +22°C° 0 mm 1 m/s 698 mmHg 43%
03:00 +22°C° 0 mm 1 m/s 698 mmHg 44%
04:00 +21°C° 0 mm 1 m/s 698 mmHg 45%
05:00 +21°C° 0 mm 1 m/s 697 mmHg 47%
06:00 +24°C° 0 mm 1 m/s 698 mmHg 42%
07:00 +26°C° 0 mm 1 m/s 699 mmHg 37%
08:00 +28°C° 0 mm 1 m/s 699 mmHg 32%
09:00 +30°C° 0 mm 1 m/s 699 mmHg 28%
10:00 +32°C° 0 mm 2 m/s 699 mmHg 24%
11:00 +35°C° 0 mm 2 m/s 699 mmHg 20%
12:00 +36°C° 0 mm 3 m/s 699 mmHg 19%
13:00 +36°C° 0 mm 3 m/s 699 mmHg 18%
14:00 +37°C° 0 mm 4 m/s 699 mmHg 18%
15:00 +37°C° 0 mm 3 m/s 699 mmHg 18%
16:00 +36°C° 0 mm 2 m/s 698 mmHg 19%
17:00 +36°C° 0 mm 2 m/s 698 mmHg 19%
18:00 +33°C° 0 mm 1 m/s 698 mmHg 24%
19:00 +30°C° 0 mm 1 m/s 698 mmHg 28%
20:00 +27°C° 0 mm 1 m/s 697 mmHg 33%
21:00 +26°C° 0 mm 1 m/s 697 mmHg 34%
22:00 +25°C° 0 mm 1 m/s 697 mmHg 36%
23:00 +25°C° 0 mm 1 m/s 698 mmHg 37%

Demain, 5 Août, Jeudi

Heure Température Précipitation Vent Pression Humidité
00:00 +24°C° 0 mm 1 m/s 697 mmHg 38%
01:00 +24°C° 0 mm 1 m/s 697 mmHg 39%
02:00 +23°C° 0 mm 1 m/s 697 mmHg 40%
03:00 +23°C° 0 mm 1 m/s 697 mmHg 40%
04:00 +22°C° 0 mm 1 m/s 697 mmHg 41%
05:00 +22°C° 0 mm 1 m/s 696 mmHg 42%
06:00 +25°C° 0 mm 1 m/s 696 mmHg 37%
07:00 +27°C° 0 mm 2 m/s 697 mmHg 32%
08:00 +30°C° 0 mm 2 m/s 697 mmHg 27%
09:00 +33°C° 0 mm 3 m/s 697 mmHg 22%
10:00 +36°C° 0 mm 4 m/s 696 mmHg 17%
11:00 +40°C° 0 mm 5 m/s 696 mmHg 12%
12:00 +40°C° 0 mm 6 m/s 696 mmHg 11%
13:00 +41°C° 0 mm 7 m/s 695 mmHg 10%
14:00 +43°C° 0 mm 7 m/s 694 mmHg 9%
15:00 +43°C° 0 mm 8 m/s 694 mmHg 10%
16:00 +42°C° 0 mm 9 m/s 693 mmHg 10%
17:00 +40°C° 0 mm 9 m/s 693 mmHg 11%
18:00 +38°C° 0 mm 7 m/s 693 mmHg 17%
19:00 +34°C° 0 mm 6 m/s 692 mmHg 22%
20:00 +30°C° 0 mm 4 m/s 692 mmHg 28%
21:00 +28°C° 0 mm 3 m/s 692 mmHg 32%
22:00 +27°C° 0 mm 2 m/s 692 mmHg 37%
23:00 +25°C° 0 mm 1 m/s 692 mmHg 41%

Après-demain, 6 Août, Vendredi

Heure Température Précipitation Vent Pression Humidité
00:00 +24°C° 0.2 mm 1 m/s 692 mmHg 46%
01:00 +23°C° 0.2 mm 1 m/s 692 mmHg 51%
02:00 +22°C° 0.2 mm 1 m/s 692 mmHg 57%
03:00 +21°C° 0 mm 1 m/s 691 mmHg 59%
04:00 +21°C° 0 mm 1 m/s 691 mmHg 62%
05:00 +19°C° 0 mm 2 m/s 691 mmHg 65%
06:00 +22°C° 0 mm 1 m/s 691 mmHg 59%
07:00 +23°C° 0 mm 1 m/s 691 mmHg 53%
08:00 +25°C° 0 mm 1 m/s 692 mmHg 47%
09:00 +27°C° 0 mm 2 m/s 692 mmHg 41%
10:00 +29°C° 0 mm 2 m/s 692 mmHg 35%
11:00 +31°C° 0 mm 3 m/s 692 mmHg 28%
12:00 +30°C° 0 mm 4 m/s 691 mmHg 30%
13:00 +30°C° 0 mm 5 m/s 691 mmHg 33%
14:00 +29°C° 0 mm 5 m/s 691 mmHg 35%
15:00 +29°C° 0 mm 5 m/s 691 mmHg 35%
16:00 +29°C° 0 mm 5 m/s 691 mmHg 34%
17:00 +29°C° 0 mm 5 m/s 691 mmHg 34%
18:00 +26°C° 0 mm 4 m/s 692 mmHg 39%
19:00 +23°C° 0 mm 4 m/s 692 mmHg 43%
20:00 +21°C° 0 mm 3 m/s 692 mmHg 48%
21:00 +20°C° 0 mm 3 m/s 692 mmHg 51%
22:00 +19°C° 0 mm 2 m/s 693 mmHg 54%
23:00 +17°C° 0 mm 2 m/s 693 mmHg 58%

7 Août, Samedi

Heure Température Précipitation Vent Pression Humidité
00:00 +17°C° 0 mm 2 m/s 693 mmHg 59%
01:00 +16°C° 0 mm 2 m/s 693 mmHg 61%
02:00 +16°C° 0 mm 1 m/s 693 mmHg 62%
03:00 +15°C° 0 mm 1 m/s 694 mmHg 64%
04:00 +15°C° 0 mm 1 m/s 694 mmHg 65%
05:00 +15°C° 0 mm 1 m/s 694 mmHg 67%
06:00 +17°C° 0 mm 2 m/s 694 mmHg 58%
07:00 +20°C° 0 mm 2 m/s 695 mmHg 50%
08:00 +23°C° 0 mm 2 m/s 696 mmHg 41%
09:00 +25°C° 0 mm 2 m/s 696 mmHg 36%
10:00 +27°C° 0 mm 3 m/s 696 mmHg 30%
11:00 +29°C° 0 mm 3 m/s 696 mmHg 24%
12:00 +30°C° 0 mm 3 m/s 696 mmHg 22%
13:00 +31°C° 0 mm 3 m/s 696 mmHg 20%
14:00 +33°C° 0 mm 4 m/s 696 mmHg 18%
15:00 +33°C° 0 mm 3 m/s 696 mmHg 18%
16:00 +33°C° 0 mm 3 m/s 696 mmHg 18%
17:00 +33°C° 0 mm 3 m/s 696 mmHg 17%
18:00 +29°C° 0 mm 3 m/s 696 mmHg 23%
19:00 +26°C° 0 mm 2 m/s 696 mmHg 28%
20:00 +23°C° 0 mm 2 m/s 696 mmHg 34%
21:00 +21°C° 0 mm 2 m/s 696 mmHg 36%
22:00 +21°C° 0 mm 1 m/s 696 mmHg 38%
23:00 +21°C° 0 mm 1 m/s 696 mmHg 40%

8 Août, Dimanche

Heure Température Précipitation Vent Pression Humidité
00:00 +20°C° 0 mm 1 m/s 696 mmHg 41%
01:00 +19°C° 0 mm 1 m/s 696 mmHg 42%
02:00 +19°C° 0 mm 1 m/s 697 mmHg 43%
03:00 +19°C° 0 mm 1 m/s 697 mmHg 44%
04:00 +18°C° 0 mm 1 m/s 697 mmHg 45%
05:00 +18°C° 0 mm 1 m/s 697 mmHg 46%
06:00 +21°C° 0 mm 1 m/s 697 mmHg 41%
07:00 +23°C° 0 mm 1 m/s 698 mmHg 36%
08:00 +26°C° 0 mm 1 m/s 698 mmHg 31%
09:00 +28°C° 0 mm 1 m/s 699 mmHg 27%
10:00 +31°C° 0 mm 1 m/s 699 mmHg 23%
11:00 +34°C° 0 mm 1 m/s 699 mmHg 19%
12:00 +35°C° 0 mm 1 m/s 699 mmHg 18%
13:00 +37°C° 0 mm 2 m/s 699 mmHg 16%
14:00 +38°C° 0 mm 2 m/s 699 mmHg 14%
15:00 +38°C° 0 mm 2 m/s 699 mmHg 14%
16:00 +38°C° 0 mm 2 m/s 698 mmHg 14%
17:00 +38°C° 0 mm 2 m/s 698 mmHg 14%
18:00 +35°C° 0 mm 2 m/s 698 mmHg 18%
19:00 +30°C° 0 mm 2 m/s 698 mmHg 22%
20:00 +27°C° 0 mm 2 m/s 698 mmHg 26%
21:00 +26°C° 0 mm 1 m/s 698 mmHg 29%
22:00 +25°C° 0 mm 1 m/s 698 mmHg 31%
23:00 +24°C° 0 mm 1 m/s 698 mmHg 34%

9 Août, Lundi

Heure Température Précipitation Vent Pression Humidité
00:00 +23°C° 0 mm 1 m/s 698 mmHg 36%
01:00 +23°C° 0 mm 1 m/s 698 mmHg 39%
02:00 +22°C° 0 mm 1 m/s 698 mmHg 41%
03:00 +22°C° 0 mm 1 m/s 698 mmHg 42%
04:00 +21°C° 0 mm 1 m/s 698 mmHg 44%
05:00 +21°C° 0 mm 1 m/s 698 mmHg 45%
06:00 +23°C° 0 mm 1 m/s 698 mmHg 41%
07:00 +25°C° 0 mm 1 m/s 699 mmHg 37%
08:00 +28°C° 0 mm 1 m/s 699 mmHg 33%
09:00 +30°C° 0 mm 1 m/s 700 mmHg 29%
10:00 +33°C° 0 mm 1 m/s 700 mmHg 25%
11:00 +36°C° 0 mm 2 m/s 700 mmHg 21%
12:00 +37°C° 0 mm 2 m/s 700 mmHg 20%
13:00 +38°C° 0 mm 3 m/s 699 mmHg 18%
14:00 +39°C° 0 mm 3 m/s 699 mmHg 17%
15:00 +36°C° 0.3 mm 3 m/s 699 mmHg 29%
16:00 +31°C° 0.3 mm 3 m/s 699 mmHg 40%
17:00 +28°C° 0.3 mm 4 m/s 699 mmHg 52%
18:00 +26°C° 0.2 mm 3 m/s 699 mmHg 57%
19:00 +24°C° 0.2 mm 2 m/s 699 mmHg 61%
20:00 +22°C° 0.2 mm 1 m/s 699 mmHg 66%
21:00 +21°C° 0 mm 1 m/s 699 mmHg 66%
22:00 +21°C° 0 mm 1 m/s 699 mmHg 65%
23:00 +21°C° 0 mm 1 m/s 699 mmHg 65%
Voir plus

Nous avons besoin de votre consentement

Meteoprog et ses fournisseurs de services peuvent stocker et accéder à des données personnelles telles que des cookies, des identifiants d'appareils ou d'autres technologies similaires sur votre appareil et traiter ces données pour personnaliser le contenu et les publicités, ainsi que pour fournir des fonctionnalités de médias sociaux et analyser le trafic.

  • Stocker et/ou accéder à des informations sur votre appareil

    Des cookies, des identifiants d'appareils ou d'autres informations peuvent être stockés ou accessibles sur votre appareil aux fins indiquées ci-dessus.

  • Annonces et contenus personnalisés, mesure des annonces et des contenus, connaissance de l'audience et développement de produits

    Les annonces et le contenu peuvent être personnalisés en fonction d'un profil. D'autres données peuvent être ajoutées pour mieux personnaliser les annonces et le contenu. Les performances des publicités et du contenu peuvent être mesurées. Il est possible d'obtenir des informations sur le public qui a vu les publicités et le contenu. Ces données peuvent être utilisées pour développer ou améliorer l'expérience de l'utilisateur, les systèmes et les logiciels.

En cliquant sur "J'accepte", vous autorisez l'utilisation de cookies, des identifiants d'appareils, des balises web ou d'autres technologies similaires. Vos paramètres peuvent être modifiés dans le navigateur de votre appareil.

Dans certains cas, des intérêts légitimes peuvent être invoqués plutôt qu'un consentement. Vous pouvez en savoir plus à ce sujet dans notre Politique de confidentialité et de cookies.